Regional Weather Roundup
Issued by NWS

Home | Current Version | Previous Version | Text Only | Print | Product List | Glossary On
Versions: 1 2 3 4 5 6 7 8 9 10 11 12 13 14 15 16 17 18 19 20 21 22 23 24 25 26 27 28 29 30 31 32 33 34 35 36 37 38 39 40 41 42 43 44 45 46 47 48 49 50
914
ASUS45 KCYS 240010
RWRWY

WYOMING REGIONAL WEATHER ROUNDUP
NATIONAL WEATHER SERVICE CHEYENNE WY
500 PM MST MON JAN 23 2017

NOTE:  "FAIR" INDICATES FEW OR NO CLOUDS BELOW 12,000 FEET
WITH NO SIGNIFICANT WEATHER AND/OR OBSTRUCTIONS TO VISIBILITY.

WYZ001-240100-
YELLOWSTONE NATIONAL PARK

CITY           SKY/WX    TMP DP  RH WIND       PRES   REMARKS
LK YELLOWSTONE   N/A     22  16  78 VRB3      29.46F
6HR MIN TEMP:  12; 6HR MAX TEMP:  22;

W YELLOWSTONE  NOT AVBL

$$
WYZ002>013-054>058-071-098>099-240100-
NORTHERN WYOMING

CITY           SKY/WX    TMP DP  RH WIND       PRES   REMARKS
JACKSON        LGT SNOW  21  21 100 CALM      29.42F VSB 1
CODY           MOCLDY    21  18  88 NE15      29.60R WCI   8
GREYBULL       FAIR      25  20  81 NW15      29.59S WCI  13
6HR MIN TEMP:  23; 6HR MAX TEMP:  29;

WORLAND        CLOUDY    27  25  92 NE5       29.59S WCI  22
6HR MIN TEMP:  23; 6HR MAX TEMP:  28;

SHERIDAN       FAIR      19  17  92 W13       29.68R WCI   6
6HR MIN TEMP:  19; 6HR MAX TEMP:  31;

BUFFALO        FAIR      25  17  72 N10       29.62R WCI  15
6HR MIN TEMP:  24; 6HR MAX TEMP:  31;

GILLETTE       FAIR      24  20  84 N9        29.62R WCI  14
6HR MIN TEMP:  24; 6HR MAX TEMP:  36;

HULETT         MOCLDY    21  19  93 MISG      29.65R FOG
NEWCASTLE      FAIR      30  23  74 NW7       29.58R WCI  23

$$
WYZ014>020-022>026-101>103-240100-
CENTRAL WYOMING

CITY           SKY/WX    TMP DP  RH WIND       PRES   REMARKS
BIG PINEY      CLOUDY    20  18  92 NW3       29.44F
6HR MIN TEMP:  20; 6HR MAX TEMP:  23; 6HR PCP:  0.02;

PINEDALE       CLOUDY    27  25  93 S7        29.43S WCI  19
DUBOIS         NOT AVBL
LANDER         CLOUDY    26  21  81 NW8       29.51S WCI  18
6HR MIN TEMP:  22; 6HR MAX TEMP:  27; 6HR PCP: TRACE;

RIVERTON       MIX PCPN  24  21  88 NW5       29.53S WCI  18
6HR MIN TEMP:  17; 6HR MAX TEMP:  25; 6HR PCP:  0.03;

CASPER         CLOUDY    32  27  81 NE5       29.53S WCI  27
6HR MIN TEMP:  29; 6HR MAX TEMP:  36; 6HR PCP: TRACE;

DOUGLAS        CLOUDY    35  23  61 E9        29.56R WCI  28
6HR MIN TEMP:  35; 6HR MAX TEMP:  44;


$$
WYZ021-027>030-104>119-240100-
SOUTHERN WYOMING

CITY           SKY/WX    TMP DP  RH WIND       PRES   REMARKS
EVANSTON       LGT SNOW  25  22  88 SW17      29.43R FOG     WCI  12
6HR MIN TEMP:  25; 6HR MAX TEMP:  30; 6HR PCP:  0.01;

ROCK SPRINGS   CLOUDY    29  26  89 E16       29.37F WCI  17
6HR MIN TEMP:  29; 6HR MAX TEMP:  33; 6HR PCP:  0.02;

RAWLINS        CLOUDY    31  27  85 NE5       29.46F WCI  26
6HR MIN TEMP:  31; 6HR MAX TEMP:  36; 6HR PCP: TRACE;

LARAMIE        FAIR      25  24  96 E7        29.49F WCI  17
6HR MIN TEMP:  25; 6HR MAX TEMP:  33; 6HR PCP: TRACE;

CHEYENNE       CLOUDY    37  26  64 E12       29.53R WCI  29
6HR MIN TEMP:  37; 6HR MAX TEMP:  50;

TORRINGTON     FAIR      40  27  59 SE5       29.55R
6HR MIN TEMP:  40; 6HR MAX TEMP:  48;


$$




USA.gov is the U.S. government's official web portal to all federal, state and local government web resources and services.